Change the Weather History Date:

Saturday, November 30, 2013

  Actual Average (KISQ) Record (KISQ)
Temperature  
Mean Temperature 33 °F -  
Max Temperature 36 °F 35 °F 53 °F (1998)
Min Temperature 30 °F 20 °F -1 °F (1976)
Degree Days  
Heating Degree Days 32    
Moisture  
Dew Point 25 °F    
Average Humidity 74    
Maximum Humidity 85    
Minimum Humidity 59    
Precipitation  
Precipitation 0.08 in - - ()
Sea Level Pressure  
Sea Level Pressure 30.13 in    
Wind  
Wind Speed 7 mph (SSW)    
Max Wind Speed 13 mph    
Max Gust Speed 21 mph    
Averages and records for this station are not official NWS values.
T = Trace of Precipitation, MM = Missing Value Source: NWS Daily Summary

Daily Weather History Graph

Daily Weather History Graph

Search for Another Location

Airport or City:

Trip Planner

Search our weather history database for the weather conditions in past years. The results will help you decide how hot, cold, wet, or windy it might be!

Date:

Astronomy

Nov. 30, 2013 Rise Set
Actual Time 8:08 AM EST 5:01 PM EST
Civil Twilight 7:34 AM EST 5:36 PM EST
Nautical Twilight 6:56 AM EST 6:13 PM EST
Astronomical Twilight 6:20 AM EST 6:49 PM EST
Moon 5:11 AM EST (11/30) 3:32 PM EST (11/30)
Length of Visible Light 10h 01m
Length of Day
8h 53m
Waning Crescent, 7% of the Moon is Illuminated
Nov 30
Waning Crescent
Dec 2
New
Dec 9
First Quarter
Dec 17
Full
Dec 25
Last Quarter

Hourly Weather History & Observations

Time (EST) Temp. Windchill Dew Point Humidity Pressure Visibility Wind Dir Wind Speed Gust Speed Precip Events Conditions
12:56 AM 30.9 °F 23.5 °F 23.0 °F 72% 30.33 in - South 8.1 mph - N/A   Unknown
1:56 AM 30.9 °F 24.3 °F 24.1 °F 76% 30.31 in - South 6.9 mph - N/A   Unknown
2:56 AM 32.0 °F 23.0 °F 23.0 °F 69% 30.27 in - South 11.5 mph 20.7 mph N/A   Unknown
3:56 AM 32.0 °F 22.5 °F 24.1 °F 73% 30.22 in - SSW 12.7 mph 19.6 mph N/A   Unknown
4:56 AM 33.1 °F 24.9 °F 25.0 °F 72% 30.19 in - SSW 10.4 mph - N/A   Unknown
5:56 AM 33.1 °F 26.1 °F 25.0 °F 72% 30.17 in - South 8.1 mph - N/A   Unknown
6:56 AM 33.1 °F 26.1 °F 21.9 °F 64% 30.15 in - SSW 8.1 mph - N/A   Unknown
7:56 AM 30.9 °F 22.2 °F 24.1 °F 76% 30.14 in - SSW 10.4 mph - 0.01 in   Unknown
8:56 AM 30.0 °F 21.7 °F 26.1 °F 85% 30.13 in - SSW 9.2 mph - 0.04 in   Unknown
9:56 AM 30.9 °F 23.5 °F 26.1 °F 82% 30.12 in - SSW 8.1 mph - 0.03 in   Unknown
10:56 AM 32.0 °F 24.8 °F 25.0 °F 75% 30.11 in - SSW 8.1 mph - N/A   Unknown
11:56 AM 33.1 °F 28.7 °F 25.0 °F 72% 30.09 in - SSW 4.6 mph - N/A   Unknown
12:56 PM 34.0 °F - 25.0 °F 70% 30.06 in - Calm Calm - N/A   Unknown
1:56 PM 35.1 °F - 23.0 °F 61% 30.05 in - Calm Calm - N/A   Unknown
2:56 PM 36.0 °F - 23.0 °F 59% 30.03 in - Calm Calm - N/A   Unknown
3:56 PM 35.1 °F 32.2 °F 24.1 °F 64% 30.04 in - North 3.5 mph - N/A   Unknown
4:56 PM 34.0 °F 31.0 °F 26.1 °F 73% 30.05 in - WNW 3.5 mph - N/A   Unknown
5:56 PM 32.0 °F - 26.1 °F 79% 30.07 in - Calm Calm - N/A   Unknown
6:56 PM 32.0 °F 28.7 °F 26.1 °F 79% 30.07 in - South 3.5 mph - N/A   Unknown
7:56 PM 32.0 °F 28.7 °F 26.1 °F 79% 30.08 in - South 3.5 mph - N/A   Unknown
8:56 PM 32.0 °F 27.5 °F 26.1 °F 79% 30.08 in - South 4.6 mph - N/A   Unknown
9:56 PM 32.0 °F 27.5 °F 26.1 °F 79% 30.08 in - South 4.6 mph - N/A   Unknown
10:56 PM 32.0 °F 27.5 °F 26.1 °F 79% 30.09 in - South 4.6 mph - N/A   Unknown
11:56 PM 32.0 °F 27.5 °F 26.1 °F 79% 30.09 in - South 4.6 mph - N/A   Unknown